Location: Willow Grove Area
(40.1625°N, 75.1113°W)
Time: 06:54:35
(UTC-04:00)

Envisat - Visible Passes

Search period start: 16 July 2018 00:00
Search period end: 26 July 2018 00:00
Orbit: 764 x 766 km, 98.2° (Epoch: 16 July)

Date Brightness Start Highest point End Pass type
(mag) Time Alt. Az. Time Alt. Az. Time Alt. Az.
17 Jul 5.5 21:20:12 10° SW 21:23:54 20° W 21:27:38 10° NW visible
19 Jul 5.9 21:48:27 10° WSW 21:49:46 11° W 21:51:06 10° WNW visible
20 Jul 5.2 21:08:29 10° SSW 21:12:39 26° W 21:16:51 10° NW visible
22 Jul 5.7 21:35:46 10° WSW 21:38:28 14° W 21:41:11 10° WNW visible
23 Jul 4.8 20:56:54 10° SSW 21:01:25 32° W 21:05:58 10° NNW visible
25 Jul 5.6 21:23:43 10° SW 21:27:12 18° W 21:30:41 10° NW visible
